Weather History for KBMT - September, 2013

Change the Weather History Date:

Friday, September 6, 2013

  Actual Average (KBPT) Record (KBPT)
Temperature  
Mean Temperature 82 °F 81 °F  
Max Temperature 92 °F 90 °F 102 °F (1933)
Min Temperature 73 °F 72 °F 57 °F (2011)
Degree Days  
Heating Degree Days 0 0  
Month to date heating degree days 0  
Since 1 July heating degree days 0  
Cooling Degree Days 17 16  
Month to date cooling degree days 100  
Year to date cooling degree days 2267  
Growing Degree Days 32 (Base 50)    
Moisture  
Dew Point 75 °F    
Average Humidity 87    
Maximum Humidity 100    
Minimum Humidity 52    
Precipitation  
Precipitation 0.00 in 0.20 in 5.37 in (1980)
Month to date precipitation 1.25  
Year to date precipitation 40.48  
Snow  
Snow 0.00 in 0.00 in 0.00 in ()
Month to date snowfall 0.0  
Since 1 July snowfall 0.0  
Since 1 September snowfall 0.0  
Snow Depth -    
Sea Level Pressure  
Sea Level Pressure 30.03 in    
Wind  
Wind Speed 2 mph (East)    
Max Wind Speed 12 mph    
Max Gust Speed 20 mph    
Visibility 8 miles    
Events Rain , Thunderstorm    
T = Trace of Precipitation, MM = Missing Value Source: NWS Daily Summary

Daily Weather History Graph

Daily Weather History Graph

Search for Another Location

Airport or City:

Trip Planner

Search our weather history database for the weather conditions in past years. The results will help you decide how hot, cold, wet, or windy it might be!

Date:

Astronomy

Sep. 06, 2013 Rise Set
Actual Time 6:56 AM CDT 7:33 PM CDT
Civil Twilight 6:32 AM CDT 7:57 PM CDT
Nautical Twilight 6:04 AM CDT 8:25 PM CDT
Astronomical Twilight 5:35 AM CDT 8:54 PM CDT
Moon 8:00 AM CDT (9/6) 8:08 PM CDT (9/6)
Length of Visible Light 13h 24m
Length of Day
12h 36m
New Moon, 2% of the Moon is Illuminated
Sep 6
New Moon
Sep 12
First Quarter
Sep 19
Full
Sep 26
Last Quarter
Oct 4
New

Hourly Weather History & Observations

Time (CDT) Temp. Heat Index Dew Point Humidity Pressure Visibility Wind Dir Wind Speed Gust Speed Precip Events Conditions
12:15 AM 76.5 °F - 76.5 °F 100% 30.05 in 7.0 mi Calm Calm - N/A   Scattered Clouds
12:35 AM 76.5 °F - 76.5 °F 100% 30.05 in 7.0 mi Calm Calm - N/A   Clear
12:55 AM 75.6 °F - 75.6 °F 100% 30.05 in 7.0 mi North 3.5 mph - N/A   Clear
1:15 AM 75.2 °F - 75.2 °F 100% 30.05 in 5.0 mi North 3.5 mph - N/A   Clear
1:35 AM 75.4 °F - 75.4 °F 100% 30.05 in 7.0 mi Calm Calm - N/A   Clear
1:55 AM 75.4 °F - 75.4 °F 100% 30.04 in 7.0 mi Calm Calm - N/A   Clear
2:15 AM 75.2 °F - 75.2 °F 100% 30.04 in 5.0 mi Calm Calm - N/A   Clear
2:35 AM 74.8 °F - 74.8 °F 100% 30.04 in 4.0 mi Calm Calm - N/A   Clear
2:55 AM 74.5 °F - 74.5 °F 100% 30.03 in 4.0 mi Calm Calm - N/A   Clear
3:15 AM 73.9 °F - 73.9 °F 100% 30.03 in 4.0 mi Calm Calm - N/A   Clear
3:35 AM 73.6 °F - 73.6 °F 100% 30.03 in 3.0 mi Calm Calm - N/A   Clear
3:55 AM 73.8 °F - 73.8 °F 100% 30.04 in 4.0 mi Calm Calm - N/A   Clear
4:15 AM 74.3 °F - 74.3 °F 100% 30.04 in 4.0 mi NNE 3.5 mph - N/A   Clear
4:35 AM 74.3 °F - 74.3 °F 100% 30.03 in 4.0 mi Calm Calm - N/A   Clear
4:55 AM 74.3 °F - 74.3 °F 100% 30.03 in 4.0 mi North 3.5 mph - N/A   Scattered Clouds
5:15 AM 74.3 °F - 74.3 °F 100% 30.04 in 4.0 mi North 3.5 mph - N/A   Scattered Clouds
5:35 AM 74.3 °F - 74.3 °F 100% 30.04 in 4.0 mi Calm Calm - N/A   Scattered Clouds
5:55 AM 74.3 °F - 74.3 °F 100% 30.03 in 4.0 mi Calm Calm - N/A   Clear
6:15 AM 74.1 °F - 74.1 °F 100% 30.04 in 4.0 mi North 3.5 mph - N/A   Clear
6:35 AM 73.9 °F - 73.9 °F 100% 30.05 in 4.0 mi NNE 3.5 mph - N/A   Clear
6:55 AM 73.9 °F - 73.9 °F 100% 30.05 in 4.0 mi Calm Calm - N/A   Scattered Clouds
7:15 AM 74.5 °F - 74.5 °F 100% 30.06 in 4.0 mi Calm Calm - N/A   Mostly Cloudy
7:35 AM 75.2 °F - 75.2 °F 100% 30.07 in 5.0 mi NNE 4.6 mph - N/A   Mostly Cloudy
7:55 AM 76.1 °F - 76.1 °F 100% 30.07 in 7.0 mi NE 5.8 mph - N/A   Scattered Clouds
8:15 AM 77.0 °F - 77.0 °F 100% 30.08 in 7.0 mi ENE 5.8 mph - N/A   Clear
8:35 AM 78.1 °F - 77.7 °F 99% 30.08 in 10.0 mi ENE 4.6 mph - N/A   Scattered Clouds
8:55 AM 79.5 °F - 76.5 °F 90% 30.08 in 10.0 mi NE 4.6 mph - N/A   Scattered Clouds
9:15 AM 80.6 °F 86.4 °F 75.6 °F 85% 30.09 in 10.0 mi NE 4.6 mph - N/A   Clear
9:35 AM 81.5 °F 88.0 °F 75.6 °F 82% 30.09 in 10.0 mi NNE 5.8 mph - N/A   Scattered Clouds
9:55 AM 81.0 °F 86.9 °F 75.2 °F 83% 30.10 in 10.0 mi NE 4.6 mph - N/A   Overcast
10:15 AM 84.4 °F 93.1 °F 75.7 °F 75% 30.10 in 10.0 mi NE 4.6 mph - N/A   Scattered Clouds
10:35 AM 85.8 °F 95.9 °F 76.3 °F 73% 30.09 in 10.0 mi NE 8.1 mph - N/A   Scattered Clouds
10:55 AM 84.9 °F 94.5 °F 76.3 °F 75% 30.09 in 10.0 mi NE 6.9 mph - N/A   Mostly Cloudy
11:15 AM 86.7 °F 97.3 °F 76.1 °F 71% 30.09 in 10.0 mi NE 5.8 mph - N/A Thunderstorm Thunderstorm
11:35 AM 89.2 °F 99.5 °F 75.4 °F 63% 30.09 in 10.0 mi East 4.6 mph - N/A Thunderstorm Thunderstorm
11:55 AM 88.9 °F 97.1 °F 73.6 °F 60% 30.09 in 10.0 mi ESE 8.1 mph - N/A   Mostly Cloudy
12:15 PM 81.3 °F 86.8 °F 73.9 °F 78% 30.09 in 1.8 mi SSW 6.9 mph - N/A Rain Heavy Rain
12:35 PM 82.9 °F 92.1 °F 77.4 °F 83% 30.08 in 10.0 mi Calm Calm - N/A   Overcast
12:55 PM 87.4 °F 94.8 °F 72.9 °F 62% 30.07 in 10.0 mi East 3.5 mph - N/A   Scattered Clouds
1:15 PM 88.5 °F 95.8 °F 72.3 °F 59% 30.06 in 10.0 mi SSE 5.8 mph - N/A   Clear
1:35 PM 89.6 °F 98.2 °F 73.6 °F 59% 30.05 in 10.0 mi SSW 3.5 mph - N/A   Scattered Clouds
1:55 PM 91.4 °F 100.7 °F 73.6 °F 56% 30.04 in 10.0 mi NE 3.5 mph - N/A   Mostly Cloudy
2:15 PM 91.4 °F 98.4 °F 71.8 °F 52% 30.04 in 10.0 mi East 5.8 mph - N/A Thunderstorm Thunderstorm
2:35 PM 78.6 °F - 72.3 °F 81% 30.04 in 5.0 mi ENE 11.5 mph 19.6 mph N/A Rain Heavy Rain
2:55 PM 79.5 °F - 78.6 °F 97% 30.03 in 10.0 mi ESE 5.8 mph - N/A Rain , Thunderstorm Light Thunderstorms and Rain
3:15 PM 81.9 °F 91.3 °F 79.2 °F 91% 30.02 in 10.0 mi SSE 3.5 mph - N/A   Scattered Clouds
3:35 PM 84.2 °F 93.8 °F 76.8 °F 78% 30.01 in 10.0 mi Calm Calm - N/A   Clear
3:55 PM 84.7 °F 93.6 °F 75.7 °F 74% 30.00 in 10.0 mi SE 3.5 mph - N/A   Clear
4:15 PM 85.1 °F 94.1 °F 75.4 °F 73% 30.00 in 10.0 mi Calm Calm - N/A   Clear
4:35 PM 86.0 °F 95.1 °F 75.4 °F 70% 30.00 in 10.0 mi SSE 5.8 mph - N/A Thunderstorm Clear
4:55 PM 86.0 °F 95.1 °F 75.2 °F 70% 30.00 in 10.0 mi SSE 6.9 mph - N/A   Clear
5:15 PM 86.0 °F 94.6 °F 74.8 °F 69% 29.99 in 7.0 mi SSE 6.9 mph - N/A   Clear
5:35 PM 87.8 °F 97.1 °F 74.8 °F 65% 29.98 in 7.0 mi SE 8.1 mph - N/A   Clear
5:55 PM 85.8 °F 93.4 °F 73.9 °F 67% 29.99 in 10.0 mi South 6.9 mph - N/A   Clear
6:15 PM 85.1 °F 92.9 °F 74.3 °F 70% 29.99 in 10.0 mi SSE 4.6 mph - N/A   Clear
6:35 PM 83.8 °F 90.8 °F 73.8 °F 72% 29.99 in 10.0 mi SSE 4.6 mph - N/A   Clear
6:55 PM 82.8 °F 89.2 °F 73.9 °F 75% 29.99 in 10.0 mi South 4.6 mph - N/A   Clear
7:15 PM 82.2 °F 88.5 °F 74.3 °F 77% 29.99 in 10.0 mi Calm Calm - N/A   Scattered Clouds
7:35 PM 81.3 °F 87.4 °F 74.8 °F 81% 29.99 in 10.0 mi Calm Calm - N/A   Clear
7:55 PM 80.6 °F 86.2 °F 75.2 °F 84% 30.00 in 10.0 mi Calm Calm - N/A   Clear
8:15 PM 80.4 °F 86.0 °F 75.6 °F 85% 30.00 in 10.0 mi SE 3.5 mph - N/A   Clear
8:35 PM 79.7 °F - 77.9 °F 94% 30.00 in 10.0 mi SE 3.5 mph - N/A   Clear
8:55 PM 79.9 °F - 77.0 °F 91% 30.00 in 10.0 mi Calm Calm - N/A   Clear
9:15 PM 79.2 °F - 77.9 °F 96% 30.00 in 10.0 mi Calm Calm - N/A   Clear
9:35 PM 78.6 °F - 77.9 °F 98% 30.00 in 10.0 mi Calm Calm - N/A   Clear
9:55 PM 78.6 °F - 78.1 °F 98% 30.00 in 10.0 mi Calm Calm - N/A   Clear
10:15 PM 77.9 °F - 77.7 °F 99% 30.00 in 10.0 mi Calm Calm - N/A   Clear
10:35 PM 76.6 °F - 76.6 °F 100% 30.00 in 10.0 mi Calm Calm - N/A   Clear
10:55 PM 76.3 °F - 76.3 °F 100% 29.99 in 10.0 mi Calm Calm - N/A   Clear
11:15 PM 75.6 °F - 75.6 °F 100% 29.99 in 10.0 mi Calm Calm - N/A   Clear
11:35 PM 75.4 °F - 75.4 °F 100% 29.99 in 10.0 mi Calm Calm - N/A   Clear
11:55 PM 75.4 °F - 75.4 °F 100% 29.99 in 10.0 mi Calm Calm - N/A   Clear